Date,TemperatureHighF,TemperatureAvgF,TemperatureLowF,DewpointHighF,DewpointAvgF,DewpointLowF,HumidityHigh,HumidityAvg,HumidityLow,PressureMaxIn,PressureMinIn,WindSpeedMaxMPH,WindSpeedAvgMPH,GustSpeedMaxMPH,PrecipitationSumIn
2013-1-1,73.9,60.1,47.5,56.3,50.6,43.5,86,72,52,30.00,29.79,4,0,8,0.00
2013-1-2,75.6,64.9,56.8,62.7,56.6,50.4,85,75,62,29.95,29.79,3,1,8,0.00
2013-1-3,64.4,57.9,50.0,56.3,51.9,45.4,85,80,74,30.10,29.84,4,1,7,0.28
2013-1-4,59.2,52.6,48.7,49.0,45.8,43.2,85,78,69,30.16,30.03,4,1,5,0.01
2013-1-5,65.5,54.2,42.4,50.5,44.5,37.7,84,71,57,30.17,30.06,5,1,8,0.00
2013-1-6,63.0,57.7,54.0,53.3,50.4,47.4,85,77,66,30.11,29.95,4,1,5,0.71
2013-1-7,63.3,55.7,48.0,49.8,46.3,40.3,84,71,61,30.12,29.96,7,2,9,0.01
2013-1-8,74.3,63.5,58.3,61.8,54.9,49.8,81,74,64,30.15,30.01,6,1,8,0.00
2013-1-9,76.1,69.5,62.1,65.2,61.5,55.1,85,76,69,30.20,30.01,4,2,5,0.26
2013-1-10,79.2,70.6,63.1,66.2,61.4,57.6,84,73,55,30.22,30.05,8,1,10,0.19
2013-1-11,80.1,69.2,59.0,64.5,58.7,53.9,85,70,49,30.11,29.96,4,1,8,0.00
2013-1-12,79.7,68.8,59.7,63.8,58.1,53.9,83,70,48,30.06,29.88,4,1,6,0.00
2013-1-13,80.2,68.5,58.5,62.6,57.5,53.3,83,69,47,30.04,29.86,4,1,5,0.00
2013-1-14,80.4,69.2,59.2,62.7,57.4,52.9,83,67,48,30.04,29.92,6,1,8,0.00
2013-1-15,79.9,70.3,61.0,63.2,58.4,54.3,83,67,50,30.00,29.83,4,1,7,0.00
2013-1-16,79.5,71.2,64.2,62.9,58.7,55.0,79,65,48,29.95,29.78,4,1,8,0.00
2013-1-17,75.4,60.7,44.6,60.6,50.1,32.4,83,69,56,29.92,29.76,6,2,12,0.00
2013-1-18,59.0,51.3,43.0,43.0,38.6,31.8,71,62,54,30.20,29.92,12,4,14,0.00
2013-1-19,64.6,56.8,49.3,50.8,46.7,40.0,76,69,60,30.17,29.95,7,2,8,0.00
2013-1-20,71.4,61.6,53.4,50.9,48.9,45.5,79,64,43,30.03,29.85,3,1,7,0.00
2013-1-21,70.2,58.5,50.4,51.1,46.4,41.5,83,66,45,29.95,29.83,4,0,6,0.00
2013-1-22,62.1,53.8,46.6,41.9,34.2,27.8,62,48,30,30.09,29.83,6,1,10,0.00
2013-1-23,61.0,49.4,37.0,39.8,33.7,28.5,76,57,33,30.15,30.02,4,0,5,0.00
2013-1-24,71.6,57.7,44.2,50.6,44.3,37.2,77,62,44,30.10,29.95,4,1,8,0.00
2013-1-25,73.2,62.2,54.5,53.5,48.0,45.4,76,61,37,30.10,29.96,4,1,5,0.00
2013-1-26,74.8,63.4,52.7,57.3,51.9,45.4,82,67,53,30.06,29.94,3,0,4,0.00
2013-1-27,71.2,63.4,58.5,54.9,52.0,49.4,78,67,54,30.21,29.96,9,2,10,0.00
2013-1-28,77.5,67.3,56.3,58.9,55.4,50.2,81,67,50,30.19,30.02,6,2,6,0.00
2013-1-29,79.2,69.3,58.5,62.4,57.9,52.3,82,68,53,30.06,29.91,5,1,5,0.00
2013-1-30,83.3,74.2,66.4,61.1,59.2,56.4,77,61,46,29.95,29.60,10,2,11,0.00
2013-1-31,63.9,53.5,44.1,53.5,37.1,28.4,77,56,31,30.04,29.67,8,1,8,0.00
2013-2-1,66.9,52.5,41.4,37.0,33.1,25.4,65,49,29,30.11,29.98,3,1,6,0.00
2013-2-2,64.2,51.3,39.6,40.7,32.7,23.0,75,51,31,30.13,29.92,3,1,5,0.00
2013-2-3,67.1,52.8,41.7,40.4,34.6,29.7,80,54,25,29.99,29.82,4,1,10,0.00
2013-2-4,64.9,54.4,41.7,43.7,39.5,35.6,80,59,36,29.87,29.78,3,0,4,0.00
2013-2-5,68.7,57.5,45.3,48.2,43.5,38.4,80,61,43,29.88,29.75,2,0,4,0.00
2013-2-6,70.2,63.1,58.1,54.5,51.3,46.8,76,66,57,29.99,29.81,4,1,4,0.00
2013-2-7,78.3,68.0,61.0,60.1,57.2,53.4,80,69,52,29.88,29.60,6,1,8,0.00
2013-2-8,70.3,63.4,56.7,59.4,51.8,47.9,75,66,53,29.94,29.59,4,1,7,0.00
2013-2-9,67.6,57.3,50.2,49.1,44.4,40.0,79,63,44,30.12,29.83,8,2,11,0.00
2013-2-10,74.5,63.2,49.3,54.3,49.8,42.2,80,63,46,30.10,29.96,10,2,14,0.00
2013-2-11,82.6,71.2,61.5,59.8,56.2,52.3,74,60,44,30.04,29.84,6,1,10,0.00
2013-2-12,80.4,71.0,64.2,62.8,59.3,55.4,80,67,51,29.93,29.66,5,1,8,0.00
2013-2-13,74.7,70.5,64.9,67.6,60.4,50.2,80,70,56,29.83,29.61,6,1,7,0.00
2013-2-14,64.6,54.2,48.7,52.0,46.6,42.5,81,75,61,29.90,29.69,4,0,5,0.00
2013-2-15,63.9,53.4,44.1,46.1,42.1,38.0,80,67,43,29.90,29.73,4,1,8,0.00
2013-2-16,48.6,48.1,46.4,43.8,43.3,40.1,85,83,77,29.76,29.66,1,0,1,0.00
2013-2-17,52.2,45.8,34.5,43.8,26.3,12.9,84,52,22,30.11,29.67,7,1,12,0.00
2013-2-18,62.2,46.3,28.8,39.9,30.5,18.8,76,56,34,30.19,29.95,8,1,9,0.00
2013-2-19,78.1,62.0,45.1,57.4,48.4,37.7,81,63,41,29.96,29.83,11,2,11,0.00
2013-2-20,61.5,59.5,59.4,52.8,51.5,51.4,75,75,73,29.85,29.84,1,0,2,0.00
2013-2-21,66.9,60.4,59.4,51.4,50.8,47.5,75,71,52,29.90,29.80,3,0,7,0.00
2013-2-22,85.6,72.9,61.9,62.7,59.5,51.2,80,64,44,29.91,29.76,9,2,9,0.00
2013-2-23,82.8,73.5,64.4,62.2,60.3,56.1,77,64,47,29.83,29.67,7,2,9,0.00
2013-2-24,74.7,65.8,58.3,58.6,54.0,40.3,80,68,31,29.86,29.63,6,1,9,0.30
2013-2-25,69.3,63.6,58.8,62.2,56.2,50.2,81,77,69,29.78,29.59,9,3,14,1.30
2013-2-26,77.4,69.3,61.3,64.1,58.3,50.6,81,69,43,29.67,29.50,8,2,11,0.71
2013-2-27,70.2,61.1,53.6,50.5,45.9,42.6,73,58,40,29.81,29.61,3,1,7,0.00
2013-2-28,70.9,59.6,48.9,45.4,41.5,36.0,74,53,35,29.77,29.66,4,1,8,0.00
2013-3-1,63.0,54.9,49.3,37.0,35.5,32.9,56,48,36,29.82,29.67,8,2,8,0.00
2013-3-2,56.7,47.7,39.2,35.0,31.0,27.2,76,54,35,29.84,29.70,8,2,11,0.00
2013-3-3,48.6,42.2,36.1,30.9,27.9,24.7,73,57,44,29.85,29.69,8,2,8,0.00
2013-3-4,62.4,47.9,34.9,37.3,28.6,23.5,69,50,26,29.92,29.78,5,1,6,0.00
2013-3-5,74.7,60.0,41.4,51.8,42.9,33.7,75,55,31,29.89,29.74,7,2,8,0.00
2013-3-6,64.9,64.9,64.9,50.7,50.7,50.7,60,60,60,29.75,29.75,2,2,7,0.00
2013-3-7,64.9,56.5,40.1,50.7,39.8,29.3,75,55,34,29.99,29.75,4,1,7,0.05
2013-3-8,69.3,53.0,40.3,46.7,39.9,35.5,84,64,31,30.03,29.88,8,1,10,0.00
2013-3-9,69.8,56.3,44.4,47.4,43.5,39.1,83,64,38,30.08,29.90,6,2,9,0.00
2013-3-10,75.4,63.0,49.6,54.2,48.9,43.1,81,62,43,30.01,29.87,8,3,12,0.00
2013-3-11,78.1,66.7,53.1,55.2,52.2,47.1,81,61,45,29.88,29.66,11,2,11,0.00
2013-3-12,70.7,65.3,54.5,63.2,54.8,43.4,80,69,54,29.85,29.62,4,1,6,0.05
2013-3-13,71.1,59.0,49.3,43.5,37.0,30.3,72,47,23,29.99,29.76,8,2,8,0.00
2013-3-14,60.6,52.0,43.0,36.4,30.7,25.6,72,45,29,30.06,29.89,8,2,8,0.00
2013-3-15,72.0,54.5,38.5,42.7,36.4,28.4,81,55,27,30.00,29.90,5,1,7,0.01
2013-3-16,80.6,63.8,48.7,51.9,45.4,39.7,77,54,29,29.91,29.81,4,1,7,0.00
2013-3-17,79.0,64.4,48.0,53.0,46.5,40.4,76,54,33,29.91,29.79,4,1,7,0.00
2013-3-18,80.2,68.8,60.6,59.5,56.0,51.9,79,65,48,29.86,29.68,8,1,8,0.00
2013-3-19,79.9,70.1,60.8,59.4,56.0,51.1,79,62,45,29.84,29.67,7,1,8,0.05
2013-3-20,67.1,61.7,52.5,55.1,50.0,46.0,81,66,55,29.84,29.63,11,2,11,0.21
2013-3-21,66.0,54.6,44.1,46.2,37.9,31.5,85,58,28,29.74,29.62,4,1,7,0.01
2013-3-22,67.5,57.0,46.6,45.8,39.0,33.0,72,53,31,29.85,29.64,8,2,12,0.00
2013-3-23,68.7,60.9,53.1,60.4,53.8,44.8,84,78,64,29.75,29.65,11,1,11,3.20
2013-3-24,82.6,70.9,62.1,68.1,61.6,56.9,83,73,53,29.64,29.39,8,2,11,0.79
2013-3-25,68.5,60.2,52.7,57.6,38.8,26.7,73,48,25,29.80,29.39,8,2,9,0.00
2013-3-26,57.6,49.7,41.5,32.3,28.4,25.2,55,44,33,30.00,29.77,9,2,10,0.00
2013-3-27,61.2,49.2,39.9,36.6,30.9,28.2,70,50,33,30.04,29.93,4,2,8,0.00
2013-3-28,67.5,53.1,40.6,40.8,35.3,27.9,78,55,23,30.06,29.91,7,1,8,0.00
2013-3-29,72.3,56.7,41.9,45.0,38.2,32.0,83,56,24,30.08,29.96,8,1,8,0.00
2013-3-30,77.7,61.7,44.4,50.1,44.1,39.0,82,56,28,30.05,29.89,5,1,8,0.00
2013-3-31,82.6,68.6,54.9,55.9,50.0,43.1,72,53,37,29.91,29.75,6,1,8,0.00
2013-4-1,81.9,70.6,61.5,63.9,57.2,51.6,75,63,47,29.83,29.70,4,1,8,0.00
2013-4-2,77.9,67.6,55.8,56.4,49.1,42.2,81,55,29,29.97,29.72,6,2,8,0.00
2013-4-3,81.0,66.2,55.0,59.8,54.7,48.1,80,68,43,29.95,29.77,8,2,10,0.38
2013-4-4,77.2,70.8,66.2,65.4,60.9,58.2,80,71,60,29.82,29.65,8,2,8,0.20
2013-4-5,69.3,61.1,56.5,59.5,53.2,47.9,80,75,70,29.87,29.59,4,1,6,0.17
2013-4-6,70.2,61.5,52.0,52.8,49.4,45.0,79,65,49,30.03,29.79,7,2,11,0.00
2013-4-7,79.3,68.0,58.6,58.8,53.9,50.2,80,62,46,30.05,29.86,8,2,10,0.00
2013-4-8,81.7,68.9,55.0,60.6,55.0,49.3,81,63,43,30.04,29.86,11,2,11,0.00
2013-4-9,84.7,72.5,60.1,63.2,58.1,53.6,80,62,44,30.07,29.86,9,2,11,0.00
2013-4-10,82.6,71.6,58.1,62.1,58.2,51.3,81,64,49,29.98,29.78,11,3,11,0.00
2013-4-11,88.5,76.8,68.5,66.7,63.7,59.6,77,65,45,29.88,29.63,8,2,11,0.32
2013-4-12,85.1,77.4,72.9,68.1,64.7,61.4,77,66,50,29.77,29.57,6,2,12,0.01
2013-4-13,80.6,72.6,62.6,62.6,52.9,45.8,67,51,35,29.89,29.64,4,1,6,0.00
2013-4-14,78.1,66.1,59.2,60.4,56.4,51.7,79,71,48,29.87,29.67,8,1,11,1.09
2013-4-15,84.6,71.8,62.1,63.4,59.6,55.5,81,66,47,29.94,29.62,7,1,9,0.01
2013-4-16,79.3,68.1,65.8,61.7,58.9,58.2,77,73,54,30.04,29.86,7,1,9,0.00
2013-4-17,79.7,72.3,63.7,63.4,60.3,56.4,79,66,54,30.04,29.87,6,2,8,0.00
2013-4-18,86.0,76.0,65.3,64.4,61.5,58.3,79,62,46,29.95,29.79,7,2,10,0.00
2013-4-19,88.7,78.3,71.6,67.3,64.9,62.1,73,64,46,29.89,29.73,5,2,11,0.02
2013-4-20,74.1,57.1,51.1,62.5,49.1,44.5,80,75,67,30.02,29.75,6,2,8,0.41
2013-4-21,71.1,64.0,53.6,57.9,53.7,46.6,78,69,60,30.07,29.89,11,3,14,0.19
2013-4-22,66.6,63.3,60.4,58.6,54.7,50.6,78,74,65,30.01,29.85,9,4,10,0.09
2013-4-23,73.6,65.3,57.4,55.1,52.3,49.2,76,64,50,30.09,29.87,7,2,9,0.00
2013-4-24,83.5,69.5,54.7,60.5,54.9,48.6,81,62,38,30.08,29.87,8,2,10,0.00
2013-4-25,85.3,74.3,61.0,62.6,59.1,53.4,78,60,44,30.08,29.86,4,1,6,0.00
2013-4-26,79.9,72.6,66.4,62.1,57.8,52.0,71,60,52,30.15,29.93,7,2,10,0.00
2013-4-27,82.6,72.2,62.4,59.3,56.1,53.4,76,58,39,30.14,29.95,10,2,10,0.00
2013-4-28,83.5,73.9,65.5,62.3,59.2,57.1,75,61,46,30.01,29.78,10,3,14,0.00
2013-4-29,83.5,72.9,67.1,64.6,60.1,56.6,76,65,49,29.93,29.74,5,1,8,0.43
2013-4-30,84.7,72.2,65.5,64.9,60.3,57.7,79,67,47,29.93,29.71,9,1,11,0.01
2013-5-1,77.7,70.6,66.0,62.9,59.5,56.4,78,68,60,29.98,29.76,7,3,12,0.00
2013-5-2,70.3,69.0,67.8,62.1,61.0,58.2,78,76,67,29.89,29.67,10,3,20,4.52
2013-5-3,70.9,67.6,65.5,61.2,59.2,56.8,79,74,64,29.78,29.64,11,5,19,3.74
2013-5-4,70.9,68.7,65.8,63.5,60.5,55.5,79,75,66,29.69,29.57,10,4,16,4.64
2013-5-5,77.0,67.9,61.0,61.7,55.0,51.1,78,65,44,29.78,29.51,4,1,7,0.00
2013-5-6,72.9,66.0,56.3,53.6,49.0,45.9,72,55,40,29.88,29.64,5,1,8,0.00
2013-5-7,77.4,67.2,55.6,57.6,52.7,47.4,75,60,46,29.83,29.70,6,1,9,0.00
2013-5-8,82.6,70.8,58.6,59.5,55.1,51.1,78,59,41,30.01,29.76,4,1,8,0.00
2013-5-9,85.6,74.8,63.9,62.5,57.8,54.6,76,57,40,29.93,29.84,6,1,8,0.00
2013-5-10,89.6,76.7,62.2,63.3,59.6,54.2,76,57,38,30.05,29.82,8,2,11,0.00
2013-5-11,89.6,76.1,69.1,67.1,62.4,58.9,72,63,45,29.91,29.76,5,1,7,0.00
2013-5-12,86.0,76.4,68.2,64.2,61.2,54.9,75,60,46,29.92,29.69,4,1,7,0.00
2013-5-13,78.6,71.1,61.9,56.0,48.0,43.1,63,45,29,30.02,29.75,4,1,8,0.00
2013-5-14,80.1,68.9,56.3,50.5,44.6,37.5,64,44,22,30.07,29.87,7,1,8,0.00
2013-5-15,84.9,71.5,56.5,59.2,52.9,49.3,79,55,34,30.08,29.82,7,1,8,0.00
2013-5-16,86.9,76.2,65.3,63.6,59.1,54.9,72,56,42,30.03,29.81,8,2,9,0.00
2013-5-17,89.2,77.3,64.6,63.2,60.5,56.5,76,57,42,30.03,29.77,10,2,10,0.00
2013-5-18,90.9,78.6,68.7,66.6,63.3,60.1,75,61,41,30.00,29.83,9,2,11,0.30
2013-5-19,88.3,77.1,70.9,68.5,64.6,60.7,75,66,48,30.00,29.79,9,2,17,1.13
2013-5-20,84.9,75.9,70.0,68.3,64.7,61.3,78,69,54,30.00,29.79,10,1,10,0.14
2013-5-21,86.5,74.9,69.6,67.7,63.9,59.1,77,69,53,30.03,29.74,9,1,13,0.35
2013-5-22,82.8,75.8,68.4,67.6,63.8,60.2,77,67,55,29.95,29.72,6,1,10,0.02
2013-5-23,90.1,80.0,70.9,67.4,64.6,61.8,75,60,42,29.95,29.69,4,1,7,0.00
2013-5-24,89.8,80.3,70.0,65.2,60.9,53.9,75,54,34,30.00,29.69,6,1,8,0.00
2013-5-25,84.2,74.3,65.7,59.6,54.1,50.9,74,51,34,30.13,29.94,8,2,11,0.00
2013-5-26,86.2,73.6,60.4,61.4,54.2,48.8,75,53,31,30.11,29.88,7,2,11,0.00
2013-5-27,87.8,75.6,61.9,63.0,58.5,53.1,74,56,40,30.10,29.91,8,2,11,0.00
2013-5-28,85.8,76.6,64.6,63.4,60.8,56.5,77,59,46,30.10,29.87,8,3,12,0.00
2013-5-29,85.5,78.9,70.0,67.0,64.7,60.5,75,62,54,30.06,29.83,11,3,14,0.00
2013-5-30,87.6,79.9,72.0,68.5,65.6,63.0,76,62,49,30.10,29.84,10,4,16,0.19
2013-5-31,87.6,79.7,71.1,66.2,64.3,62.1,75,60,49,30.08,29.84,14,4,14,0.00
2013-6-1,89.8,79.9,72.3,66.5,65.0,62.8,76,61,45,30.01,29.78,11,3,13,0.01
2013-6-2,90.1,80.6,73.0,70.2,67.8,65.8,79,66,50,29.96,29.77,10,3,11,0.01
2013-6-3,92.8,79.6,72.9,70.5,67.7,65.1,78,68,48,29.86,29.75,4,1,8,0.45
2013-6-4,87.4,77.4,73.0,72.9,67.6,65.8,80,72,57,29.93,29.82,3,0,6,0.01
2013-6-5,84.9,76.1,72.7,68.3,66.3,64.7,77,72,56,29.95,29.83,5,0,8,1.05
2013-6-6,79.3,74.9,72.0,69.7,66.7,64.0,79,76,67,29.86,29.42,11,3,15,1.35
2013-6-7,88.2,78.8,72.0,70.8,66.2,62.5,77,66,51,29.79,29.42,5,2,12,0.27
2013-6-8,91.9,82.1,75.2,70.0,67.3,65.0,75,62,45,29.96,29.69,9,1,10,0.00
2013-6-9,90.1,80.5,74.5,69.6,67.2,65.0,74,64,49,30.03,29.83,7,1,11,0.01
2013-6-10,92.8,82.7,74.8,70.3,67.9,65.8,76,62,47,30.03,29.83,4,1,7,0.00
2013-6-11,92.1,83.4,75.2,70.1,67.6,65.3,74,60,47,30.03,29.78,5,1,7,0.00
2013-6-12,95.2,85.0,74.1,72.1,68.3,64.5,76,58,44,30.00,29.78,4,1,6,0.00
2013-6-13,95.5,86.1,77.2,72.4,69.2,67.1,74,58,45,29.92,29.69,4,1,7,0.00
2013-6-14,91.0,80.9,71.1,71.6,67.9,61.7,76,65,52,29.82,29.59,7,1,9,2.29
2013-6-15,88.2,80.8,73.6,67.0,64.1,61.8,74,58,45,30.00,29.70,8,3,10,0.00
2013-6-16,89.4,81.1,72.5,67.8,65.0,62.1,71,59,47,30.02,29.82,8,2,10,0.00
2013-6-17,94.3,80.9,77.9,71.7,67.2,65.8,68,63,48,29.89,29.83,6,2,10,0.00
2013-6-18,92.8,84.2,74.1,69.8,67.2,64.9,75,58,45,29.97,29.73,6,1,7,0.00
2013-6-19,93.0,85.0,75.6,70.7,67.9,65.2,75,57,45,29.93,29.74,4,1,7,0.08
2013-6-20,90.5,79.4,71.8,71.7,67.9,61.9,78,68,49,30.02,29.74,4,1,7,0.83
2013-6-21,87.4,78.7,74.5,71.2,67.7,65.6,78,69,54,30.03,29.79,5,1,9,0.64
2013-6-22,87.6,79.5,75.2,71.0,67.5,65.0,76,67,53,30.06,29.83,4,1,8,0.01
2013-6-23,90.9,82.0,74.7,71.1,67.5,65.9,75,62,47,30.09,29.84,8,2,9,0.06
2013-6-24,92.7,81.8,74.1,70.3,67.7,65.7,76,63,47,30.11,29.90,9,2,14,0.12
2013-6-25,93.7,82.6,74.5,71.5,67.9,66.1,77,62,44,30.08,29.86,5,1,8,0.11
2013-6-26,94.3,81.0,74.5,71.0,68.1,64.0,77,66,44,30.03,29.78,4,1,8,0.87
2013-6-27,94.6,83.1,72.1,71.5,67.9,63.0,76,61,46,29.93,29.72,4,1,8,0.00
2013-6-28,93.4,83.2,78.3,71.1,68.2,65.7,73,61,47,29.82,29.61,4,1,7,0.00
2013-6-29,87.3,81.9,79.3,69.6,67.7,65.5,71,62,54,29.77,29.56,5,2,8,0.00
2013-6-30,93.9,81.5,77.5,70.9,68.0,65.9,70,64,47,29.75,29.55,4,1,8,0.33
2013-7-1,85.8,77.6,74.1,69.5,67.1,65.0,78,70,57,29.91,29.59,5,1,9,2.56
2013-7-2,87.8,77.6,73.0,70.7,67.4,65.4,78,71,54,30.01,29.74,11,2,14,0.07
2013-7-3,90.3,80.3,73.9,71.1,67.8,64.6,77,66,52,30.03,29.83,11,3,12,0.04
2013-7-4,91.0,82.2,75.6,69.4,67.2,64.6,74,61,47,30.07,29.86,13,4,16,0.08
2013-7-5,90.9,82.2,74.5,70.5,67.1,65.2,74,61,46,30.09,29.87,13,4,14,0.00
2013-7-6,91.8,82.2,76.3,70.2,67.5,66.1,74,62,47,30.08,29.85,11,4,12,0.01
2013-7-7,92.3,83.3,75.9,69.3,67.2,65.7,73,59,47,30.08,29.84,11,3,11,0.00
2013-7-8,92.1,82.8,73.9,70.2,67.6,65.5,77,61,46,30.11,29.87,10,2,11,0.00
2013-7-9,92.8,83.8,75.2,70.3,67.2,64.7,77,59,43,30.13,29.89,8,2,9,0.00
2013-7-10,93.4,82.6,72.3,70.2,66.9,63.6,78,60,45,30.01,29.81,8,2,9,0.00
2013-7-11,94.1,82.9,75.0,70.2,67.3,64.8,75,60,45,29.88,29.72,7,1,8,0.00
2013-7-12,89.1,80.0,75.7,70.4,67.7,65.1,76,66,53,29.85,29.63,4,1,6,0.00
2013-7-13,91.4,78.6,72.3,70.5,67.1,63.6,78,68,50,29.90,29.67,8,1,11,1.67
2013-7-14,86.5,78.4,73.0,68.7,66.4,63.9,76,67,53,30.03,29.72,8,2,11,0.00
2013-7-15,84.0,78.5,73.0,71.1,67.7,64.3,80,70,59,30.07,29.86,11,2,12,0.64
2013-7-16,90.0,82.7,76.1,70.6,68.2,67.1,77,62,49,30.17,29.90,9,2,14,0.11
2013-7-17,90.3,83.1,76.1,71.0,67.6,64.8,78,60,46,30.14,29.91,8,2,10,0.00
2013-7-18,90.7,82.5,74.1,69.6,67.2,65.6,77,61,46,30.07,29.85,8,2,8,0.00
2013-7-19,91.0,80.2,74.5,70.1,67.1,65.3,76,65,47,30.04,29.82,5,1,8,0.08
2013-7-20,89.4,79.5,74.5,71.1,66.9,64.8,74,66,53,29.99,29.78,6,1,9,0.00
2013-7-21,91.6,80.7,74.7,70.9,68.0,65.0,74,66,49,30.01,29.77,4,1,7,0.02
2013-7-22,91.0,80.3,76.1,72.3,69.1,65.4,77,69,49,30.06,29.78,7,1,11,0.26
2013-7-23,88.2,79.9,75.0,71.8,68.4,66.2,77,68,55,29.90,29.70,7,1,7,0.00
2013-7-24,86.2,79.3,73.8,71.2,68.1,65.1,79,69,58,29.79,29.62,5,1,7,0.21
2013-7-25,89.2,81.8,73.9,70.5,67.8,65.1,75,63,53,29.89,29.58,5,1,5,0.00
2013-7-26,90.3,82.3,75.6,72.9,68.9,67.1,77,64,51,29.99,29.70,6,1,7,0.01
2013-7-27,92.1,81.7,75.2,73.3,69.4,64.9,80,67,49,29.94,29.75,9,1,9,0.46
2013-7-28,89.2,79.7,74.7,72.8,69.2,66.4,82,71,52,29.95,29.84,4,0,5,0.00
2013-7-29,93.7,82.5,72.9,71.1,68.2,65.3,79,63,46,30.03,29.93,7,1,8,0.00
2013-7-30,94.3,83.4,76.6,72.5,69.5,66.9,75,63,48,30.08,29.96,5,1,6,0.00
2013-7-31,94.3,79.9,73.0,72.8,69.2,66.2,80,71,47,30.03,29.90,7,1,11,1.39
2013-8-1,90.9,77.1,72.7,73.4,68.5,65.3,82,76,52,29.96,29.82,4,0,9,0.83
2013-8-2,92.5,81.6,73.0,72.8,69.2,66.9,82,67,48,29.93,29.82,8,1,11,0.01
2013-8-3,91.0,82.1,75.4,73.2,70.5,68.5,80,69,52,29.95,29.85,3,0,6,0.00
2013-8-4,93.9,85.2,77.5,72.6,70.9,69.4,78,63,45,29.94,29.78,3,1,5,0.00
2013-8-5,95.0,86.3,79.5,73.4,71.2,69.3,76,62,45,29.89,29.76,8,1,10,0.00
2013-8-6,95.2,85.2,79.2,71.9,70.5,68.5,77,62,46,29.88,29.79,9,3,9,0.00
2013-8-7,91.4,83.8,78.4,71.7,69.6,67.9,75,63,49,29.89,29.81,8,2,11,0.00
2013-8-8,92.5,83.1,77.7,73.7,70.3,68.5,79,66,50,29.94,29.84,11,2,11,0.28
2013-8-9,91.8,82.9,75.2,72.7,69.6,67.8,80,65,49,29.97,29.88,8,2,10,0.00
2013-8-10,93.4,84.2,75.7,72.6,70.0,68.8,80,63,48,30.03,29.92,8,2,9,0.00
2013-8-11,95.2,85.1,79.7,71.4,69.3,66.8,72,60,44,30.02,29.89,8,1,8,0.00
2013-8-12,96.6,86.9,78.3,72.4,69.9,67.8,74,58,44,30.05,29.86,7,1,8,0.00
2013-8-13,95.5,86.7,78.1,72.2,69.8,67.2,74,58,46,29.94,29.74,4,1,6,0.00
2013-8-14,95.0,84.8,74.7,72.4,69.7,65.2,76,62,45,29.83,29.70,8,1,8,1.85
2013-8-15,93.6,81.6,75.0,72.0,69.3,66.6,80,67,47,29.96,29.70,4,1,14,1.70
2013-8-16,88.3,79.2,74.1,72.3,69.1,66.4,81,72,54,29.96,29.73,3,0,5,0.01
2013-8-17,89.1,82.1,77.0,72.3,70.1,66.9,75,67,54,30.00,29.77,7,1,8,0.07
2013-8-18,91.9,82.7,76.6,74.6,70.0,68.1,79,66,50,30.05,29.83,9,2,12,0.01
2013-8-19,91.9,83.9,77.2,73.2,70.5,68.1,78,65,49,30.06,29.81,8,2,8,0.04
2013-8-20,91.2,83.8,76.5,73.0,69.7,67.6,79,63,49,30.08,29.79,8,1,10,0.00
2013-8-21,90.5,82.2,76.6,73.3,70.3,68.5,79,68,53,30.13,29.86,6,2,8,0.18
2013-8-22,83.7,77.9,72.7,73.7,69.2,64.9,81,75,65,30.13,29.85,9,1,13,1.36
2013-8-23,86.5,79.0,75.9,72.8,70.0,68.2,80,74,61,30.01,29.75,3,0,4,0.25
2013-8-24,84.6,80.3,76.5,72.0,69.8,68.4,78,71,60,30.04,29.80,7,1,8,0.00
2013-8-25,84.0,79.2,75.7,71.1,68.1,65.2,76,69,61,30.07,29.88,8,2,9,0.15
2013-8-26,88.0,80.6,74.3,70.9,67.8,65.5,81,66,52,30.13,29.88,7,2,10,0.01
2013-8-27,89.2,80.9,74.7,69.8,65.9,63.4,79,62,45,30.04,29.80,5,1,8,0.00
2013-8-28,90.1,80.7,70.9,70.4,65.6,62.9,81,61,43,30.02,29.74,7,1,8,0.00
2013-8-29,92.3,83.0,73.0,70.0,66.7,64.0,77,59,43,29.96,29.74,4,1,7,0.00
2013-8-30,94.8,84.6,75.9,71.9,68.9,66.3,78,60,43,29.93,29.68,4,1,8,0.00
2013-8-31,94.1,81.5,75.9,72.2,69.0,66.8,76,67,47,29.85,29.62,4,1,7,0.01
2013-9-1,90.5,81.8,76.5,71.9,69.4,67.5,76,67,49,29.85,29.65,4,1,6,0.05
2013-9-2,92.7,81.9,75.4,72.0,69.5,67.3,79,67,48,29.91,29.69,4,1,8,0.04
2013-9-3,89.4,82.6,75.6,72.1,70.0,68.2,81,66,53,29.91,29.68,3,0,7,0.00
2013-9-4,93.7,83.7,76.1,73.0,69.3,65.7,81,63,44,30.02,29.75,7,1,10,0.00
2013-9-5,95.5,83.9,74.7,71.5,68.9,65.0,76,61,44,30.00,29.78,3,1,6,0.00
2013-9-6,91.6,79.9,75.4,71.4,68.9,65.6,79,70,50,29.96,29.77,4,0,9,0.09
2013-9-7,89.2,80.9,73.0,70.1,66.8,64.4,80,64,45,29.92,29.74,6,2,8,0.00
2013-9-8,90.0,80.7,72.1,69.8,65.0,62.8,81,61,41,29.85,29.68,8,2,8,0.00
2013-9-9,90.7,80.6,71.4,69.9,65.2,63.5,81,61,42,29.96,29.70,8,2,8,0.00
2013-9-10,89.6,81.0,72.1,69.2,65.5,63.8,80,60,44,30.09,29.78,8,2,11,0.00
2013-9-11,89.8,81.2,73.2,70.9,67.4,65.7,81,64,48,30.01,29.81,9,2,11,0.00
2013-9-12,87.4,80.3,73.8,71.8,68.4,66.9,83,68,53,29.96,29.72,7,1,9,0.00
2013-9-13,92.8,82.6,72.7,70.2,67.7,65.6,82,62,44,29.84,29.61,4,0,4,0.00
2013-9-14,94.3,82.5,74.3,70.8,68.3,66.0,79,63,44,29.82,29.58,4,1,8,0.81
2013-9-15,93.4,82.5,74.7,73.8,69.4,67.4,82,66,47,29.94,29.73,10,2,11,0.05
2013-9-16,91.0,83.0,74.5,72.4,69.0,67.5,83,64,48,29.97,29.77,8,2,9,0.00
2013-9-17,86.7,80.3,74.1,73.9,68.8,66.8,83,69,54,29.96,29.75,11,2,11,0.07
2013-9-18,82.0,76.7,73.4,72.9,67.6,64.4,86,74,61,29.95,29.76,9,2,10,1.16
2013-9-19,86.4,76.5,72.7,72.2,67.8,64.9,84,75,55,29.98,29.75,4,1,5,0.56
2013-9-20,85.5,77.1,69.4,70.8,65.4,63.2,85,68,53,29.91,29.73,6,1,9,0.00
2013-9-21,88.0,78.9,70.0,69.9,65.9,62.8,82,65,48,29.80,29.60,7,1,8,0.00
2013-9-22,82.9,77.6,74.5,71.4,68.5,65.6,83,74,63,29.72,29.51,3,0,6,0.17
2013-9-23,83.1,77.2,73.6,72.2,69.3,66.9,85,77,65,29.87,29.59,3,0,5,0.01
2013-9-24,82.0,77.8,74.1,73.4,69.5,68.0,86,76,65,29.80,29.62,3,0,4,0.41
2013-9-25,83.8,78.9,75.0,71.7,70.0,68.6,85,74,65,29.74,29.52,2,0,4,0.00
2013-9-26,80.1,76.4,72.3,71.1,67.3,62.8,83,74,65,29.77,29.50,4,1,7,0.00
2013-9-27,80.8,74.5,68.7,67.0,64.0,61.8,79,70,61,29.87,29.64,6,2,8,0.00
2013-9-28,78.1,74.3,72.0,67.6,64.7,62.0,81,72,63,29.93,29.72,8,2,8,0.43
2013-9-29,81.9,75.6,70.7,67.0,63.9,62.0,78,67,56,29.88,29.73,8,2,13,0.00
2013-9-30,81.9,75.1,69.1,66.7,62.3,59.6,83,65,52,29.89,29.72,9,2,10,0.00
2013-10-1,82.0,75.3,69.3,64.3,61.0,58.9,73,62,50,30.01,29.77,6,1,8,0.00
2013-10-2,83.5,74.2,65.3,64.6,61.9,58.8,85,67,49,30.00,29.83,8,2,11,0.00
2013-10-3,86.4,78.0,70.2,68.7,66.4,62.4,83,68,54,30.00,29.80,8,2,8,0.00
2013-10-4,86.2,78.8,71.1,72.7,67.9,64.9,85,70,53,29.98,29.79,6,1,9,0.00
2013-10-5,85.8,78.5,71.8,71.4,67.5,64.9,83,70,55,29.99,29.78,9,1,9,0.00
2013-10-6,86.5,79.4,73.9,71.7,69.0,66.7,80,71,56,29.86,29.67,5,2,8,0.00
2013-10-7,85.8,77.9,72.7,71.3,69.0,66.4,85,74,58,29.69,29.57,6,1,8,0.19
2013-10-8,81.9,74.2,68.2,70.9,67.2,60.7,84,79,66,29.87,29.55,5,2,8,0.98
2013-10-9,69.6,65.4,62.4,61.3,59.0,57.0,83,80,72,29.93,29.74,4,1,5,0.01
2013-10-10,79.7,70.9,63.5,65.5,60.1,57.5,87,70,47,29.94,29.67,4,0,5,0.00
2013-10-11,81.5,72.3,63.0,65.3,60.6,57.7,86,68,48,29.88,29.61,4,0,4,0.00
2013-10-12,82.2,73.2,64.8,63.2,60.4,58.5,82,66,46,29.88,29.61,2,0,2,0.00
2013-10-13,84.6,73.1,64.0,64.2,61.1,57.4,82,67,45,29.93,29.65,4,1,4,0.00
2013-10-14,78.4,72.4,68.0,65.1,62.9,60.9,83,72,60,29.90,29.68,6,2,6,0.00
2013-10-15,71.8,70.3,68.4,66.3,64.2,62.1,86,81,72,29.83,29.63,5,2,5,0.34
2013-10-16,82.0,74.1,66.9,67.9,64.4,61.6,84,72,59,29.85,29.64,4,1,4,0.00
2013-10-17,84.2,75.7,66.9,70.6,65.2,61.8,86,71,53,29.83,29.60,4,1,4,0.00
2013-10-18,87.1,78.6,69.8,71.0,67.2,64.4,85,69,53,29.83,29.56,7,1,7,0.00
2013-10-19,86.7,78.9,74.1,71.2,69.2,67.2,82,73,58,29.85,29.58,3,1,3,0.15
2013-10-20,78.8,74.2,69.1,68.8,61.9,57.8,81,66,55,29.87,29.55,6,2,6,0.01
2013-10-21,82.8,76.2,70.2,70.2,66.5,61.0,85,72,63,29.87,29.64,6,1,8,0.00
2013-10-22,80.4,75.2,73.2,72.2,68.6,66.7,87,80,68,29.76,29.59,4,0,4,0.89
2013-10-23,73.9,68.4,62.8,68.1,60.4,48.0,87,76,52,29.78,29.47,4,1,8,0.01
2013-10-24,69.8,59.1,54.9,51.9,43.9,39.8,78,57,45,30.00,29.47,5,2,8,0.90
2013-10-25,71.8,59.7,53.1,53.0,49.1,40.4,84,70,46,30.06,29.78,4,0,6,0.00
2013-10-26,71.8,61.6,52.7,55.3,48.6,45.5,85,63,46,30.04,29.91,7,1,7,0.00
2013-10-27,72.7,59.5,50.5,56.0,48.2,45.0,86,68,39,30.01,29.76,4,0,4,0.00
2013-10-28,77.0,65.0,54.1,59.6,54.2,48.6,86,69,53,30.04,29.81,5,1,6,0.00
2013-10-29,77.9,64.4,60.1,63.6,56.4,53.9,87,76,54,30.09,29.85,9,0,9,0.00
2013-10-30,80.6,66.5,60.4,63.5,57.7,54.9,85,74,54,30.07,29.85,9,1,9,0.00
2013-10-31,83.3,75.1,66.9,69.3,63.5,59.8,87,68,53,29.94,29.75,8,2,9,0.00
2013-11-1,82.0,75.9,69.1,68.6,65.7,62.7,85,71,55,29.79,29.60,8,2,11,0.00
2013-11-2,82.0,70.8,59.0,69.0,65.1,54.2,89,82,60,29.84,29.46,3,1,5,2.72
2013-11-3,73.6,67.3,56.1,68.8,56.6,44.3,85,70,41,30.02,29.46,7,2,12,0.00
2013-11-4,74.1,63.8,57.4,61.8,53.1,48.6,84,68,60,30.12,29.83,11,2,13,0.47
2013-11-5,89.4,69.9,66.0,69.5,62.3,58.8,84,77,52,30.08,29.79,10,3,12,3.20
2013-11-6,77.9,70.7,66.0,66.2,63.8,61.4,87,79,63,29.99,29.84,7,2,7,3.20
2013-11-7,77.5,71.7,68.2,65.1,63.4,61.3,83,75,63,29.90,29.69,3,0,4,0.00
2013-11-8,71.6,65.0,54.0,62.1,53.9,42.5,75,67,55,30.06,29.73,8,2,9,0.00
2013-11-9,76.5,61.7,55.9,58.8,52.8,49.2,84,73,51,30.11,29.83,8,1,9,0.00
2013-11-10,75.0,62.0,55.9,63.6,54.2,49.9,87,76,59,30.04,29.83,3,0,5,0.00
2013-11-11,76.8,61.7,55.9,61.1,53.3,49.9,85,75,54,30.02,29.83,5,1,8,0.00
2013-11-12,75.6,62.3,55.9,62.1,54.2,47.9,82,75,54,29.96,29.83,7,1,8,0.00
2013-11-13,65.3,59.5,46.9,53.7,47.8,37.4,72,65,54,30.21,29.83,11,2,14,0.00
2013-11-14,67.1,57.7,45.7,54.4,48.6,37.4,80,72,64,30.14,29.83,7,2,9,0.00
2013-11-15,67.6,63.0,57.9,62.5,56.6,52.5,86,80,73,30.02,29.83,4,1,7,0.05
2013-11-16,76.6,67.9,61.7,65.3,60.9,56.8,88,79,61,30.01,29.77,5,1,8,0.01
2013-11-17,80.6,73.0,68.4,69.7,66.0,60.6,85,79,62,29.95,29.76,6,1,6,0.12
2013-11-18,79.7,73.7,68.7,70.4,67.9,63.6,87,82,73,29.85,29.69,4,1,4,0.28
2013-11-19,78.8,67.5,57.4,69.9,55.7,43.4,83,66,58,29.89,29.59,8,4,12,0.30
2013-11-20,71.1,67.6,62.2,61.4,58.8,54.3,86,74,60,30.04,29.72,9,3,13,0.08
2013-11-21,76.8,66.3,64.9,65.5,61.1,60.3,86,83,68,30.16,29.83,7,2,7,0.08
2013-11-22,79.5,69.2,64.9,66.7,62.0,59.5,88,78,59,30.09,29.88,8,1,10,0.00
2013-11-23,79.2,70.2,60.6,66.2,61.3,55.9,87,74,57,29.95,29.83,4,0,9,0.00
2013-11-24,71.2,58.3,52.7,56.6,46.5,39.0,74,65,55,30.05,29.81,11,4,12,0.00
2013-11-25,72.5,64.7,54.7,56.5,51.7,42.3,72,63,45,29.93,29.65,12,3,12,0.00
2013-11-26,75.0,70.8,66.6,70.6,64.0,54.9,87,79,66,29.67,29.28,10,2,10,0.84
2013-11-27,72.3,56.3,41.5,66.9,49.1,32.5,86,77,67,29.81,29.22,12,2,14,0.19
2013-11-28,56.5,46.3,34.7,42.8,36.3,24.4,77,68,59,30.00,29.79,8,3,9,0.00
2013-11-29,64.2,53.0,45.0,50.7,43.7,38.4,81,71,55,30.05,29.92,7,2,10,0.00
2013-11-30,62.4,57.7,55.2,54.2,50.7,46.7,82,77,71,30.01,29.78,7,3,8,0.00
2013-12-1,70.3,61.0,55.2,58.3,52.9,48.8,82,75,65,29.81,29.54,5,1,5,0.00
2013-12-2,67.5,59.8,53.6,55.5,52.5,47.9,86,77,62,29.55,29.44,4,0,4,0.00
2013-12-3,72.5,61.7,49.8,58.5,53.5,45.7,88,75,61,29.61,29.45,4,1,6,0.00
2013-12-4,77.4,67.1,57.7,65.9,59.8,53.3,87,78,63,29.72,29.52,4,0,4,0.00
2013-12-5,80.1,69.5,59.0,66.9,60.8,54.2,87,75,60,29.81,29.63,4,0,6,0.00
2013-12-6,81.3,71.9,63.3,68.7,63.2,58.1,87,75,59,29.81,29.65,6,0,6,0.00
2013-12-7,81.9,73.4,67.8,68.6,64.4,61.2,85,74,57,29.85,29.69,5,0,6,0.00
2013-12-8,74.8,67.9,64.0,65.1,61.6,58.5,87,80,71,29.86,29.72,7,1,7,0.00
2013-12-9,81.0,71.4,62.8,68.4,63.5,58.2,88,77,59,29.80,29.65,4,1,8,0.00
2013-12-10,79.2,69.0,55.6,67.1,61.5,41.5,86,77,59,29.86,29.62,8,1,8,0.22
2013-12-11,66.4,58.8,51.3,56.0,49.2,40.4,77,71,59,29.91,29.78,8,2,8,0.00
2013-12-12,63.1,56.6,45.3,48.3,37.2,24.8,75,51,23,29.97,29.80,8,2,9,0.00
2013-12-13,66.6,56.1,45.1,52.9,47.3,37.9,83,73,58,29.89,29.69,7,1,8,0.00
2013-12-14,76.8,66.4,55.2,65.9,59.9,49.8,86,80,68,29.68,29.47,7,1,8,0.52
2013-12-15,68.2,61.1,50.2,63.2,55.2,42.0,86,81,73,29.78,29.42,6,1,8,0.40
2013-12-16,55.9,47.6,41.0,42.1,39.0,35.2,84,72,54,29.86,29.73,5,1,5,0.00
2013-12-17,63.1,50.4,41.0,47.0,41.1,37.1,87,73,43,29.84,29.78,4,0,4,0.00
2013-12-18,61.3,50.9,42.4,42.6,37.2,27.1,83,63,27,29.92,29.78,6,1,7,0.00
2013-12-19,71.2,54.9,40.3,55.1,46.3,36.1,87,74,51,29.89,29.77,8,1,8,0.00
2013-12-20,75.9,62.5,48.9,60.2,53.6,44.9,87,74,57,29.84,29.69,5,1,6,0.00
2013-12-21,81.5,70.5,58.5,67.9,61.2,54.0,87,74,53,29.77,29.67,5,1,8,0.00
2013-12-22,81.9,75.1,69.8,69.3,66.0,64.1,84,74,61,29.82,29.64,9,1,9,0.00
2013-12-23,80.4,74.2,67.5,68.3,65.5,59.3,83,74,63,29.82,29.66,7,1,8,0.00
2013-12-24,66.9,56.4,48.9,58.8,42.6,30.0,81,61,36,29.96,29.67,7,2,9,0.00
2013-12-25,62.6,52.7,43.2,51.0,44.0,31.7,81,72,52,29.94,29.80,8,2,9,0.00
2013-12-26,59.4,55.1,51.6,49.3,47.1,44.4,82,75,66,29.89,29.76,4,2,4,0.00
2013-12-27,62.2,57.1,52.3,53.1,49.4,44.7,80,75,66,29.95,29.78,7,2,8,0.00
2013-12-28,71.8,65.7,59.9,65.3,58.1,48.9,85,77,67,29.84,29.54,6,2,11,0.05
2013-12-29,72.0,68.7,60.4,66.9,63.1,55.8,87,82,72,29.68,29.46,8,1,8,0.46
2013-12-30,63.7,56.5,49.5,55.8,48.5,45.7,87,75,54,29.82,29.55,4,1,6,0.01
2013-12-31,62.8,57.4,54.7,51.0,47.9,45.0,84,71,54,29.96,29.74,4,1,5,0.00
2014-1-1,60.1,57.3,53.2,56.2,51.9,45.8,87,82,69,29.89,29.63,4,1,6,1.04
2014-1-2,64.4,60.4,53.4,61.1,56.6,47.4,89,87,80,29.64,29.41,4,1,8,1.54